Regional Weather Roundup
Issued by NWS Newport/Morehead, NC

Current Version | Previous Version | Graphics & Text | Print | Product List | Glossary Off
Versions: 1 2 3 4 5 6 7 8 9 10 11 12 13 14 15 16 17 18 19 20 21 22 23 24 25 26 27 28 29 30 31 32 33 34 35 36 37 38 39 40 41 42 43 44 45 46 47 48 49 50
000 ASUS42 KMHX 251013 RWRMHX WEATHER ROUNDUP FOR EASTERN NORTH CAROLINA NATIONAL WEATHER SERVICE NEWPORT/MOREHEAD CITY NC 600 AM EDT TUE APR 25 2017 NOTE: "FAIR" INDICATES FEW OR NO CLOUDS BELOW 12,000 FEET WITH NO SIGNIFICANT WEATHER AND/OR OBSTRUCTIONS TO VISIBILITY NCZ015>017-031-032-045>047-102-103-251100- NORTH COAST CITY SKY/WX TMP DP RH WIND PRES REMARKS EDENTON N/A 66 64 90 NE21 29.50 ELIZABETH CITY CLOUDY 65 64 97 E24G35 29.55F KITTY HAWK RAIN 64 64 100 E18G31 29.51F MANTEO LGT RAIN 65 63 96 E29G38 29.53F $$ NCZ045>047-081-094-103-104-251100- CENTRAL COAST CITY SKY/WX TMP DP RH WIND PRES REMARKS FRISCO MOCLDY 67 62 84 W10G21 29.53R HAZE $$ NCZ095-097-098-100-101-251100- SOUTHERN COAST CITY SKY/WX TMP DP RH WIND PRES REMARKS BEAUFORT CLOUDY 63 62 97 SW6 29.54F CEDAR ISLAND NOT AVBL JACKSONVILLE CLOUDY 64 64 100 NW7 29.55S PINEY ISLAND CLOUDY N/A N/A N/A W12 29.52R WILMINGTON CLOUDY 63 63 100 CALM 29.56S FOG $$ NCZ011>013-027>030-043-044-078>080-089-090>093-098-251100- COASTAL PLAIN CITY SKY/WX TMP DP RH WIND PRES REMARKS AHOSKIE RAIN 61 60 98 N9 29.61F CLINTON CLOUDY 62 62 100 SW3 29.59R ELIZABETHTOWN CLOUDY 61 61 100 CALM 29.57S FOG GOLDSBORO LGT RAIN 63 63 100 SE7 29.56F GREENVILLE HVY RAIN 61 61 100 N5 29.62F HAVELOCK NOT AVBL KENANSVILLE LGT RAIN 63 63 100 CALM 29.57F KINSTON LGT RAIN 61 60 97 CALM 29.58F NEW BERN LGT RAIN 62 62 100 NW7 29.55F RICHLANDS CLOUDY 63 63 100 CALM 29.57S ROCKY MOUNT RAIN 60 60 100 NE6 29.61S FOG WASHINGTON HVY RAIN 60 60 98 NW6 29.56F WHITEVILLE FOG 61 60 97 CALM 29.57R VSB 3/4 $$ AMZ130-135-150-152-154-156-158-170-250-252-270-ANZ085-086-088-633-658-670-251100- MARINE OBSERVATIONS STATION/POSITION TIME TEMP WIND PRES WAVE SWELL AIR SEA DIR/SP/G HT/PER HT/PER (UTC) (F) (DEG/KT/KT) (MB) (FT/S) (FT/S) CHESAPEAKE LIGHT NOT AVBL 64 E VA BEACH 0950 62 54 110/ 21/ 25 1004.3 16/10 13/10 DUCK 0948 63 60 90/ 27/ 31 1000.3 2 E DUCK 0930 59 N/A 9/ 9 3/11 OREGON INLET 0936 64 63 80/ 17/ 26 999.2 13E OREGON INLT 0948 57 N/A 16/11 16/11 HATTERAS CG 0948 65 67 230/ 11/ 16 999.6 DIAMOND BUOY 0950 74 77 220/ 21/ 29 1000.5 14/11 11/11 CAPE LOOKOUT 1000 65 200/ 6/ 6 1000.5 BEAUFORT LAB 0948 63 65 290/ 3/ 7 999.0 30 SE NEW RVR IN 0908 67 220/ 4/ 8 999.9 30 SE NEW RVR IN 0943 71 N/A 10/11 5/11 27 SE WRIGHTSVLE 0908 70 72 230/ 10/ 17 999.5 5 SE WRIGHTSVLE 0908 68 69 230/ 6/ 10 1000.4 225 S CAPE HAT 0950 70 75 270/ 16/ 19 1004.1 10/ 9 8/ 9 41 SE CHARLESTON 0950 67 72 260/ 17/ 21 1002.0 7/ 8 5/ 8 $$

USA.gov is the U.S. government's official web portal to all federal, state and local government web resources and services.